Hourly Data Report for October 03, 2016

All times are specified in Local Standard Time (LST). Add 1 hour to adjust for Daylight Saving Time where and when it is observed.

QIKIQTARJUAQ A
NUNAVUT

67°32'48.000" N
64°01'54.000" W
5.50 m
2400577
YVM

Download Data

Hourly Data (October 2016)
Hourly Data Report for October 3, 2016
Temp Definition
°C
Dew Point Temp Definition
°C
Rel Hum Definition
%
Wind Dir Definition
10's deg

Wind Spd Definition
km/h
Visibility Definition
km
Stn Press Definition
kPa
Hmdx Definition


Wind Chill Definition


Weather Definition


TIME
00:00 Legend Double Dagger 0.1 -2.5 83 36 9 16.1 100.84     LegendNANA
01:00 Legend Double Dagger -0.6 -2.2 89 12 5 16.1 100.83   -2 LegendNANA
02:00 Legend Double Dagger -0.5 -3.4 81 LegendMM 9 16.1 100.84   -4 LegendNANA
03:00 Legend Double Dagger -0.5 -3.3 81 LegendMM 4 16.1 100.85   -2 LegendNANA
04:00 Legend Double Dagger -0.9 -4.7 76 24 9 16.1 100.86   -4 LegendNANA
05:00 Legend Double Dagger -1.4 -4.6 79 19 8 16.1 100.85   -4 LegendNANA
06:00 Legend Double Dagger -1.7 -5.5 75 19 17 16.1 100.83   -7 LegendNANA
07:00 Legend Double Dagger -2.0 -5.3 78 16 11 16.1 100.81   -6 LegendNANA
08:00 Legend Double Dagger -1.0 -5.4 72 18 18 16.1 100.77   -6 LegendNANA
09:00 Legend Double Dagger -0.4 -5.5 69 19 13 16.1 100.74   -5 LegendNANA
10:00 Legend Double Dagger 0.2 -5.4 66 21 11 16.1 100.70     LegendNANA
11:00 Legend Double Dagger 0.4 -5.6 64 20 15 16.1 100.69     LegendNANA
12:00 Legend Double Dagger 0.7 -4.0 71 22 11 16.1 100.66     LegendNANA
13:00 Legend Double Dagger 1.1 -4.6 66 20 15 16.1 100.65     LegendNANA
14:00 Legend Double Dagger 1.0 -4.9 65 23 9 16.1 100.66     LegendNANA
15:00 Legend Double Dagger 0.9 -4.0 70 23 8 16.1 100.65     LegendNANA
16:00 Legend Double Dagger -0.1 -3.6 77 20 13 16.1 100.65   -4 LegendNANA
17:00 Legend Double Dagger -0.5 -4.2 76 20 5 16.1 100.67   -2 LegendNANA
18:00 Legend Double Dagger -0.9 -3.8 81 20 13 16.1 100.66   -5 LegendNANA
19:00 Legend Double Dagger -0.6 -4.8 73 20 15 16.1 100.64   -5 LegendNANA
20:00 Legend Double Dagger -0.6 -5.4 70 19 9 16.1 100.62   -4 LegendNANA
21:00 Legend Double Dagger -1.0 -5.3 73 20 15 16.1 100.61   -6 LegendNANA
22:00 Legend Double Dagger -1.9 -5.6 76 20 9 16.1 100.55   -5 LegendNANA
23:00 Legend Double Dagger -1.4 -5.4 75 21 13 16.1 100.52   -6 LegendNANA

Notes on Data Quality.

Legend

  • E = Estimated
  • M = Missing
  • NA = Not Available
  • ‡ = Partner data that is not subject to review by the National Climate Archives
Date modified: